www.pogodaiklimat.ru

Погода и климат >> Архив погоды >> Австралия >> Longreach Airport


ПОГОДА в Longreach Airport

  • Прогноз погоды в Longreach Airport
  • Монитор погоды в Longreach Airport
  • Климат города

АРХИВ ПОГОДЫ в Longreach Airport

Время (UTC), дата Ветер
(напр.,м/с)
 
Видим.   Явления Облачность Т
(С)
Тd
(С)
f
(%)
Тe
(С)
Тes
(С)
Комфортность P
(гПа)
Po
(гПа)
Тmin
(С)
Tmax
(С)
R
(мм)
R24
(мм)
S
(см)
14 14.10 В 5 н/о н/о +26.3 +7.8 31 +26 +26 жарко 1012.3 990.4
15 14.10 СВ 6 н/о н/о +25.9 +8.4 33 +26 +26 жарко 1011.7 989.8
17 14.10 СВ 5 н/о н/о +23.3 +9.3 41 +25 +25 комфорт 1011.4 989.5
18 14.10 В 5 н/о н/о +22.7 +10.2 45 +25 +25 комфорт 1011.3 989.4
20 14.10 В 6 н/о н/о +23.1 +13.3 54 +26 +26 жарко 1012.4 990.5
21 14.10 СВ 7 н/о н/о +24.4 +14.5 54 +27 +27 жарко 1013.2 991.3
23 14.10 СВ 10 н/о н/о +28.9 +16.5 47 +32 +32 душно 1014.4 992.4
00 15.10 С 9 н/о н/о +30.7 +16.3 42 +34 +34 очень
душно
1014.0 992.1
02 15.10 С 5 н/о н/о +34.1 +15.5 33 +36 +36 душно 1012.6 990.7
03 15.10 С 5 н/о н/о +35.1 +14.4 29 +36 +36 очень
жарко
1011.3 989.4
05 15.10 СВ 5 н/о н/о +36.9 +13.0 24 +37 +37 очень
жарко
1008.9 987.1
06 15.10 СВ 3 н/о н/о +36.0 +12.3 24 +36 +36 очень
жарко
1008.3 986.5
08 15.10 С 15 н/о 9/0
[]
+24.4 +18.6 70 +29 +29 душно 1011.1 989.2
09 15.10 В 6 н/о н/о +24.4 +18.3 69 +29 +29 душно 1011.3 989.4
11 15.10 В 6 н/о {туман} 3/0
[]
+23.7 +17.9 70 +28 +28 душно 1012.7 990.8
12 15.10 СВ 5 н/о н/о +22.8 +18.8 78 +29 +29 очень
душно
1012.9 991.0
14 15.10 С 4 н/о 9/0
[]
+23.4 +17.6 70 +29 +29 душно 1012.0 990.1 +38.2
15 15.10 С 3 н/о н/о +23.0 +17.7 72 +28 +28 душно 1011.3 989.4
17 15.10 З 5 н/о 10/0
[]
+23.8 +17.5 68 +28 +28 душно 1011.6 989.7
18 15.10 СЗ 4 н/о н/о +23.7 +17.2 67 +28 +28 душно 1012.2 990.3
20 15.10 ЮВ 10 н/о 10/0
[]
+22.6 +17.3 72 +27 +27 душно 1013.8 991.9
21 15.10 ЮВ 8 н/о н/о +21.0 +17.2 79 +25 +25 комфорт 1014.9 992.9
23 15.10 В 8 н/о {туман} н/о +26.4 +16.6 55 +30 +30 душно 1014.9 992.9
00 16.10 В 7 н/о н/о +28.7 +16.3 47 +32 +32 душно 1014.7 992.7
02 16.10 С 4 н/о 10/0
[]
+31.4 +14.5 36 +33 +41 жарко 1013.2 991.3
03 16.10 С 4 н/о н/о +31.9 +15.0 36 +34 +34 душно 1012.2 990.3
05 16.10 З 3 н/о н/о +32.0 +15.1 36 +34 +34 душно 1010.2 988.3
06 16.10 З 5 н/о н/о +32.0 +15.1 36 +34 +34 душно 1009.7 987.8
08 16.10 ЮЗ 4 н/о н/о +31.6 +13.8 34 +33 +33 жарко 1010.2 988.3
09 16.10 штиль 0 н/о н/о +29.7 +13.0 36 +31 +31 жарко 1010.7 988.8
11 16.10 З 3 н/о 10/0 2000 м
[]
+28.3 +15.2 45 +31 +31 душно 1012.6 990.7
12 16.10 штиль 0 н/о н/о +26.1 +13.6 46 +28 +28 жарко 1012.4 990.5
14 16.10 ЮВ 3 н/о н/о +23.9 +13.7 53 +26 +26 жарко 1012.0 990.1
15 16.10 Ю 3 н/о н/о +23.9 +13.7 53 +26 +26 жарко 1011.9 990.0
17 16.10 В 4 н/о 4/0 2000 м
[]
+23.3 +15.9 63 +28 +28 душно 1011.4 989.5
18 16.10 В 4 н/о н/о +22.9 +15.7 64 +27 +27 душно 1011.5 989.6
20 16.10 ЮВ 3 н/о н/о +20.9 +15.7 72 +25 +25 комфорт 1012.5 990.6
21 16.10 ЮВ 3 н/о н/о +22.4 +16.7 70 +27 +27 душно 1013.3 991.4
23 16.10 С 3 н/о н/о +27.1 +17.6 56 +31 +31 душно 1014.0 992.1
00 17.10 СЗ 3 н/о н/о +29.9 +17.7 48 +34 +34 очень
душно
1013.7 991.8
02 17.10 СЗ 3 н/о н/о +32.4 +15.0 35 +34 +34 очень
жарко
1012.6 990.7 +20.8
03 17.10 Ю 3 н/о н/о +32.9 +15.0 34 +35 +35 душно 1011.4 989.5
05 17.10 Ю 6 н/о н/о +33.6 +10.9 25 +33 +33 жарко 1008.7 986.9
06 17.10 З 8 н/о н/о +34.8 +9.3 21 +33 +33 жарко 1008.3 986.5
08 17.10 ЮЗ 6 н/о н/о +33.4 +6.6 19 +31 +31 жарко 1008.7 986.9
09 17.10 ЮЗ 5 н/о н/о +31.3 +5.7 20 +29 +29 жарко 1009.8 987.9
11 17.10 ЮЗ 5 н/о н/о +27.9 +4.2 22 +26 +26 жарко 1011.2 989.3
12 17.10 ЮЗ 4 н/о н/о +26.0 +3.9 24 +25 +25 комфорт 1011.4 989.5
14 17.10 ЮВ 3 н/о н/о +22.7 +2.8 27 +22 +22 комфорт 1012.0 990.1 +35.9
15 17.10 Ю 4 н/о н/о +21.9 +2.6 28 +22 +22 комфорт 1011.6 989.7
17 17.10 Ю 4 н/о н/о +19.5 +1.5 30 +20 +20 1011.4 989.5
18 17.10 Ю 4 н/о н/о +18.8 +2.2 33 +19 +19 1011.3 989.4
20 17.10 Ю 4 н/о н/о +17.9 +1.4 33 +18 +18 1012.5 990.6
21 17.10 ЮВ 4 н/о н/о +21.4 +10.3 49 +23 +23 комфорт 1013.4 991.5
23 17.10 СВ 7 н/о н/о +28.4 +17.0 50 +32 +32 душно 1014.0 992.1
00 18.10 С 5 н/о н/о +29.7 +16.5 45 +33 +33 душно 1013.9 992.0
02 18.10 С 5 н/о н/о +33.5 +15.5 34 +36 +36 очень
душно
1012.3 990.4 +17.7
03 18.10 СВ 6 н/о н/о +34.1 +15.1 32 +36 +36 душно 1011.4 989.5
05 18.10 С 3 н/о 5/0
[]
+36.0 +12.9 25 +36 +44 очень
жарко
1009.3 987.5
06 18.10 С 3 н/о н/о +34.4 +12.1 26 +34 +34 очень
жарко
1008.9 987.1
08 18.10 ЮВ 7 н/о 10/0
[]
+31.9 +11.7 29 +32 +32 жарко 1010.2 988.3
09 18.10 СВ 6 н/о н/о +28.1 +14.7 44 +31 +31 душно 1010.7 988.8
11 18.10 С 3 н/о 1/0
[]
+25.4 +14.2 50 +28 +28 жарко 1012.2 990.3
12 18.10 СЗ 2 н/о н/о +24.4 +14.2 53 +27 +27 жарко 1012.5 990.6
14 18.10 В 2 н/о н/о +22.2 +11.9 52 +25 +25 комфорт 1013.0 991.1 +36.6
15 18.10 СВ 2 н/о н/о +21.0 +11.6 55 +24 +24 комфорт 1012.8 990.9
17 18.10 СВ 5 н/о н/о +21.3 +12.7 58 +24 +24 комфорт 1012.8 990.9
18 18.10 СВ 4 н/о н/о +20.8 +13.3 62 +23 +23 комфорт 1013.4 991.5
20 18.10 СВ 6 н/о н/о +21.3 +15.2 68 +24 +24 комфорт 1014.5 992.5
21 18.10 СВ 7 н/о н/о +23.5 +16.3 64 +27 +27 душно 1015.2 993.2
23 18.10 С 9 н/о н/о +29.1 +16.0 45 +32 +32 душно 1015.1 993.1
00 19.10 С 8 н/о н/о +30.9 +16.1 41 +34 +34 душно 1014.9 992.9
02 19.10 С 5 н/о н/о +34.0 +14.5 31 +35 +35 очень
жарко
1013.0 991.1 +19.9
03 19.10 СВ 5 н/о н/о +35.6 +10.6 22 +35 +35 очень
жарко
1011.9 990.0
05 19.10 С 4 н/о н/о +37.4 +7.3 16 +35 +35 очень
жарко
1009.9 988.0
06 19.10 СВ 3 н/о н/о +36.1 +8.8 19 +34 +34 очень
жарко
1009.3 987.5
08 19.10 СВ 3 н/о н/о +35.2 +8.1 19 +33 +33 жарко 1009.3 987.5
09 19.10 СВ 4 н/о н/о +32.2 +7.1 21 +31 +31 жарко 1010.0 988.1
11 19.10 СВ 6 н/о н/о +30.5 +11.5 31 +31 +31 жарко 1011.7 989.8
12 19.10 СВ 5 н/о н/о +29.1 +11.6 34 +30 +30 жарко 1012.2 990.3
14 19.10 СВ 4 н/о н/о +25.9 +11.3 40 +27 +27 жарко 1011.9 990.0
15 19.10 СВ 4 н/о н/о +24.6 +11.5 44 +26 +26 жарко 1011.7 989.8
17 19.10 СВ 3 н/о н/о +22.8 +11.8 50 +25 +25 комфорт 1011.1 989.2
18 19.10 СВ 5 н/о н/о +23.6 +12.3 49 +25 +25 комфорт 1011.2 989.3
20 19.10 СВ 4 н/о н/о +22.7 +14.3 59 +26 +26 жарко 1012.4 990.5
21 19.10 СВ 6 н/о н/о +25.2 +16.4 58 +29 +29 душно 1013.6 991.7
23 19.10 С 8 н/о н/о +29.5 +17.3 48 +34 +34 очень
душно
1014.7 992.7
00 20.10 С 8 н/о н/о +32.3 +16.6 39 +35 +35 очень
душно
1014.1 992.2
02 20.10 СЗ 5 н/о н/о +36.6 +13.4 25 +37 +37 очень
жарко
1012.2 990.3
03 20.10 С 5 н/о н/о +37.0 +7.9 17 +35 +35 очень
жарко
1011.0 989.1
05 20.10 С 5 н/о 3/0
[]
+38.3 +8.1 16 +36 +43 очень
жарко
1008.5 986.7
06 20.10 З 4 н/о н/о +38.0 +6.9 15 +36 +36 очень
жарко
1007.9 986.1
08 20.10 СЗ 3 н/о 10/0
[]
+36.8 +6.9 16 +34 +35 очень
жарко
1008.0 986.2
09 20.10 З 2 н/о н/о +34.5 +5.9 17 +32 +32 жарко 1008.6 986.8
11 20.10 ЮЗ 6 н/о 10/0
[]
+33.5 +2.4 14 +30 +30 жарко 1010.6 988.7
12 20.10 ЮЗ 7 н/о н/о +32.2 +2.3 15 +29 +29 жарко 1011.3 989.4
14 20.10 Ю 6 н/о 5/0
[]
+29.0 +7.6 26 +28 +28 жарко 1011.5 989.6 +39.4
15 20.10 Ю 7 н/о н/о +27.7 +8.1 29 +27 +27 жарко 1011.1 989.2
17 20.10 Ю 5 н/о 9/0
[]
+25.7 +9.1 35 +26 +26 жарко 1010.6 988.7
18 20.10 Ю 5 н/о н/о +25.2 +8.7 35 +26 +26 жарко 1010.9 989.0
20 20.10 ЮЗ 4 н/о н/о +21.4 +6.5 38 +22 +22 комфорт 1012.3 990.4
21 20.10 ЮЗ 4 н/о н/о +22.2 +6.4 36 +23 +23 комфорт 1013.1 991.2
23 20.10 ЮВ 6 н/о н/о +27.6 +11.2 36 +28 +28 жарко 1013.5 991.6
00 21.10 Ю 5 н/о н/о +29.2 +12.2 35 +30 +30 жарко 1013.3 991.4
02 21.10 Ю 2 н/о н/о +32.9 +10.9 26 +33 +33 жарко 1011.5 989.6 +21.3
03 21.10 С 3 н/о н/о +34.3 +7.4 19 +32 +32 жарко 1010.4 988.5
05 21.10 Ю 3 н/о н/о +36.0 +5.3 15 +33 +33 жарко 1008.2 986.4
06 21.10 ЮЗ 3 н/о н/о +36.4 +3.6 13 +33 +33 жарко 1007.5 985.7
08 21.10 ЮЗ 5 н/о н/о +35.1 -1.1 10 +31 +31 жарко 1008.1 986.3
09 21.10 ЮЗ 4 н/о н/о +32.2 +0.3 13 +29 +29 жарко 1008.7 986.9
11 21.10 ЮЗ 4 н/о н/о +28.0 -2.0 14 +25 +25 комфорт 1010.1 988.2
12 21.10 ЮЗ 4 н/о н/о +26.4 -2.3 15 +24 +24 комфорт 1010.7 988.8

 

Местоположение метеостанции Longreach Airport (Квинсленд, Австралия): широта -23.43 долгота 144.28 высота над уровнем моря 192 м.

В архиве по умолчанию представлена погода в Longreach Airport за последнюю неделю. Архивные данные за месяц целиком и за предыдущие месяцы, начиная с января 2011 года, Вы можете получить, выбрав интересующий диапазон дат из раскрывающегося списка и нажав кнопку "Ввод!".


*Определитесь, кто Вы:
робот инопланетянин человек

Внимание! Время в таблицах - всемирное. Для получения местного времени необходимо прибавить поправку, которая в Longreach Airport равна 10 ч.

Смотрите также архив погоды в соседних городах и на ближайших метеорологических станциях:

Погода в Blackall Airport (Квинсленд, Австралия) (161 км)
Погода в Winton Airport (Квинсленд, Австралия) (170 км)
Погода в Hughenden Airport (Квинсленд, Австралия) (290 км)
Погода в Richmond Airport (Квинсленд, Австралия) (327 км)
Погода в Lochington (Квинсленд, Австралия) (335 км)
Погода в Clermont Airport (Квинсленд, Австралия) (349 км)
Погода в Charleville Aero (Квинсленд, Австралия) (387 км)
Погода в Trepell Airport (Квинсленд, Австралия) (392 км)
Погода в Emerald Airport (Квинсленд, Австралия) (398 км)
Погода в Julia Creek Airport (Квинсленд, Австралия) (404 км)

Пояснения к столбцам:

Ветер - указаны скорость ветра в м/с - средняя за 10 мин, порывы в срок и между сроками (в фигурных скобках) и направление, откуда дует ветер: С - северный, СВ - северо-восточный, В - восточный, ЮВ - юго-восточный, Ю - южный, ЮЗ - юго-западный, З - западный, СЗ - северо-западный.
Видимость - горизонтальная дальность видимости в метрах или километрах. При видимости от 1 до 10 км при отсутствии осадков обычно наблюдается дымка, при ухудшении видимости до 1 км и менее - туман. В сухую погоду видимость может ухудшаться дымом, пылью или мглою.
Явления - указаны атмосферные явления, наблюдавшиеся в срок или в последний час перед сроком; фигурными скобками обозначены явления, наблюдавшиеся между сроками (за 1-3 часа до срока); квадратными скобками обозначены град или гололедные отложения с указанием их диаметра в мм.
Облачность - указаны через наклонную черту общая и нижняя облачность в баллах и высота нижней границы облаков в метрах; квадратными скобками обозначены формы облаков: Ci - перистые, Cs - перисто-слоистые, Cc - перисто-кучевые, Ac - высококучевые, As - высокослоистые, Sc - слоисто-кучевые, Ns - слоисто-дождевые, Cu - кучевые, Cb - кучево-дождевые. Подробнее классификацию облаков см. в Атласе облаков (PDF).
T - Температура воздуха - температура, измеренная на высоте 2 м над землей.
Td - Температура точки росы - температура, при понижении до которой содержащийся в воздухе водяной пар достигнет насыщения.
f - Относительная влажность воздуха - влажноcть воздуха, измеренная на высоте 2 м над землей.
Te - Эффективная температура - температура, которую ощущает одетый по сезону человек в тени. Характеристика душности погоды. При расчете учитывается влияние влажности воздуха и скорости ветра на теплоощущения человека.
Tes - Эффективная температура на солнце - температура, которую ощущает человек, с поправкой на солнечный нагрев. Характеристика знойности погоды. Зависит от высоты солнца над горизонтом, облачности и скорости ветра. Ночью, в пасмурную погоду, а также при ветре 12 м/с и более поправка равна нулю.
P - Атмосферное давление - приведенное к уровню моря атмосферное давление.
Po - Атмосферное давление - измеренное на уровне метеостанции атмосферное давление.
Tmin - Минимальная температура - минимум температуры воздуха на высоте 2 м над землей.
Tmax - Максимальная температура - максимум температуры воздуха на высоте 2 м над землей.
R - Количество осадков - Количество выпавших осадков за период времени, мм. При наведении курсора мыши на число - период времени, за который выпало указанное количество осадков.
R24 - Количество осадков - Количество выпавших осадков за 24 часа, мм.
S - Снежный покров - Высота снежного покрова, см. При наведении курсора мыши на число - состояние снежного покрова и степень покрытия местности в баллах.